TimeEST,TemperatureF,Dew PointF,Humidity,Sea Level PressureIn,VisibilityMPH,Wind Direction,Wind SpeedMPH,Gust SpeedMPH,PrecipitationIn,Events,Conditions,WindDirDegrees,DateUTC
12:15 AM,10.4,8.6,92,30.07,10.0,West,4.6,-,N/A,,Scattered Clouds,280,2013-02-17 05:15:00
12:35 AM,10.4,8.6,92,30.07,10.0,West,3.5,-,N/A,Snow,Light Snow,280,2013-02-17 05:35:00
12:54 AM,12.2,10.4,92,30.07,10.0,Calm,Calm,-,N/A,Snow,Light Snow,0,2013-02-17 05:54:00
1:15 AM,12.2,10.4,92,30.08,10.0,Calm,Calm,-,N/A,,Overcast,0,2013-02-17 06:15:00
1:35 AM,12.2,10.4,92,30.08,10.0,Calm,Calm,-,N/A,,Overcast,0,2013-02-17 06:35:00
1:54 AM,12.2,10.4,92,30.08,10.0,NW,3.5,-,N/A,,Overcast,310,2013-02-17 06:54:00
2:15 AM,12.2,10.4,92,30.08,10.0,Calm,Calm,-,N/A,,Overcast,0,2013-02-17 07:15:00
2:35 AM,14.0,10.4,86,30.08,10.0,Calm,Calm,-,N/A,,Overcast,0,2013-02-17 07:35:00
2:54 AM,14.0,10.4,86,30.08,10.0,NW,3.5,-,N/A,,Overcast,310,2013-02-17 07:54:00
3:15 AM,15.8,10.4,79,30.08,10.0,NW,4.6,-,N/A,,Overcast,310,2013-02-17 08:15:00
3:34 AM,15.8,10.4,79,30.08,10.0,North,4.6,-,N/A,,Overcast,10,2013-02-17 08:34:00
3:54 AM,14.0,10.4,86,30.09,10.0,Calm,Calm,-,N/A,,Overcast,0,2013-02-17 08:54:00
4:15 AM,14.0,10.4,86,30.09,10.0,Calm,Calm,-,N/A,,Mostly Cloudy,0,2013-02-17 09:15:00
4:34 AM,12.2,10.4,92,30.09,10.0,Calm,Calm,-,N/A,,Scattered Clouds,0,2013-02-17 09:34:00
4:55 AM,10.4,8.6,92,30.10,10.0,Calm,Calm,-,N/A,,Clear,0,2013-02-17 09:55:00
5:15 AM,10.4,8.6,92,30.10,10.0,Calm,Calm,-,N/A,,Clear,0,2013-02-17 10:15:00
5:34 AM,8.6,6.8,92,30.11,10.0,Calm,Calm,-,N/A,,Clear,0,2013-02-17 10:34:00
5:55 AM,8.6,6.8,92,30.11,10.0,Calm,Calm,-,N/A,,Clear,0,2013-02-17 10:55:00
6:14 AM,8.6,6.8,92,30.12,10.0,Calm,Calm,-,N/A,,Clear,0,2013-02-17 11:14:00
6:34 AM,6.8,5.0,92,30.12,10.0,Calm,Calm,-,N/A,,Scattered Clouds,0,2013-02-17 11:34:00
6:55 AM,8.6,6.8,92,30.13,10.0,Calm,Calm,-,N/A,,Scattered Clouds,0,2013-02-17 11:55:00
7:15 AM,5.0,1.4,85,30.13,10.0,Calm,Calm,-,N/A,,Scattered Clouds,0,2013-02-17 12:15:00
7:34 AM,6.8,3.2,85,30.14,10.0,Calm,Calm,-,N/A,,Scattered Clouds,0,2013-02-17 12:34:00
7:55 AM,3.2,1.4,92,30.15,10.0,Calm,Calm,-,N/A,,Clear,0,2013-02-17 12:55:00
8:14 AM,5.0,3.2,92,30.15,10.0,Calm,Calm,-,N/A,,Clear,0,2013-02-17 13:14:00
8:34 AM,8.6,6.8,92,30.15,10.0,Calm,Calm,-,N/A,,Clear,0,2013-02-17 13:34:00
8:55 AM,10.4,8.6,92,30.16,10.0,Calm,Calm,-,N/A,,Scattered Clouds,0,2013-02-17 13:55:00
9:14 AM,10.4,8.6,92,30.16,10.0,Calm,Calm,-,N/A,,Mostly Cloudy,0,2013-02-17 14:14:00
9:35 AM,12.2,10.4,92,30.17,10.0,Calm,Calm,-,N/A,,Mostly Cloudy,0,2013-02-17 14:35:00
9:55 AM,12.2,10.4,92,30.17,10.0,Calm,Calm,-,N/A,,Overcast,0,2013-02-17 14:55:00
10:14 AM,12.2,10.4,92,30.17,10.0,Calm,Calm,-,N/A,,Overcast,0,2013-02-17 15:14:00
10:35 AM,15.8,10.4,79,30.18,10.0,Calm,Calm,-,N/A,,Overcast,0,2013-02-17 15:35:00
10:55 AM,15.8,8.6,73,30.19,10.0,Calm,Calm,-,N/A,,Overcast,0,2013-02-17 15:55:00
11:14 AM,17.6,8.6,68,30.19,10.0,Calm,Calm,-,N/A,,Overcast,0,2013-02-17 16:14:00
11:35 AM,17.6,8.6,68,30.18,10.0,Calm,Calm,-,N/A,,Mostly Cloudy,0,2013-02-17 16:35:00
12:14 PM,19.4,6.8,58,30.19,10.0,SW,4.6,-,N/A,,Overcast,220,2013-02-17 17:14:00
12:35 PM,19.4,8.6,63,30.19,10.0,Calm,Calm,-,N/A,,Overcast,0,2013-02-17 17:35:00
12:54 PM,21.2,6.8,54,30.18,10.0,West,4.6,-,N/A,,Overcast,270,2013-02-17 17:54:00
1:15 PM,21.2,8.6,58,30.17,10.0,Calm,Calm,-,N/A,,Overcast,0,2013-02-17 18:15:00
1:35 PM,21.2,8.6,58,30.17,10.0,Calm,Calm,-,N/A,,Overcast,0,2013-02-17 18:35:00
1:54 PM,23.0,8.6,54,30.16,10.0,South,3.5,-,N/A,,Mostly Cloudy,190,2013-02-17 18:54:00
2:15 PM,23.0,10.4,59,30.15,10.0,SSW,5.8,-,N/A,,Scattered Clouds,200,2013-02-17 19:15:00
2:35 PM,23.0,10.4,59,30.16,10.0,Calm,Calm,-,N/A,,Scattered Clouds,0,2013-02-17 19:35:00
2:54 PM,23.0,8.6,54,30.16,10.0,Calm,Calm,-,N/A,,Overcast,0,2013-02-17 19:54:00
3:15 PM,24.8,10.4,54,30.15,10.0,Calm,Calm,-,N/A,,Overcast,0,2013-02-17 20:15:00
3:35 PM,24.8,10.4,54,30.15,10.0,WSW,6.9,-,N/A,,Overcast,240,2013-02-17 20:35:00
3:54 PM,24.8,10.4,54,30.15,10.0,Calm,Calm,-,N/A,,Mostly Cloudy,0,2013-02-17 20:54:00
4:15 PM,24.8,12.2,59,30.14,10.0,WSW,6.9,-,N/A,,Overcast,250,2013-02-17 21:15:00
4:34 PM,24.8,12.2,59,30.14,10.0,SW,6.9,-,N/A,,Overcast,230,2013-02-17 21:34:00
4:54 PM,24.8,10.4,54,30.14,10.0,Calm,Calm,-,N/A,,Scattered Clouds,0,2013-02-17 21:54:00
5:15 PM,24.8,10.4,54,30.14,10.0,SSW,9.2,-,N/A,,Scattered Clouds,210,2013-02-17 22:15:00
5:34 PM,24.8,10.4,54,30.14,10.0,West,4.6,-,N/A,,Scattered Clouds,260,2013-02-17 22:34:00
5:54 PM,24.8,10.4,54,30.14,10.0,SW,4.6,-,N/A,,Scattered Clouds,220,2013-02-17 22:54:00
6:15 PM,24.8,12.2,59,30.14,10.0,SW,3.5,-,N/A,,Scattered Clouds,220,2013-02-17 23:15:00
6:34 PM,23.0,12.2,63,30.13,10.0,Calm,Calm,-,N/A,,Clear,0,2013-02-17 23:34:00
6:55 PM,23.0,10.4,59,30.13,10.0,Calm,Calm,-,N/A,,Clear,0,2013-02-17 23:55:00
7:14 PM,23.0,10.4,59,30.13,10.0,SSE,3.5,-,N/A,,Clear,150,2013-02-18 00:14:00
7:35 PM,21.2,12.2,68,30.13,10.0,SSE,3.5,-,N/A,,Clear,150,2013-02-18 00:35:00
7:55 PM,21.2,12.2,68,30.12,10.0,SE,4.6,-,N/A,,Clear,140,2013-02-18 00:55:00
8:14 PM,21.2,12.2,68,30.12,10.0,SE,4.6,-,N/A,,Clear,140,2013-02-18 01:14:00
8:35 PM,21.2,12.2,68,30.13,10.0,SSE,4.6,-,N/A,,Clear,150,2013-02-18 01:35:00
8:55 PM,21.2,10.4,63,30.13,10.0,SSE,5.8,-,N/A,,Clear,150,2013-02-18 01:55:00
9:14 PM,21.2,10.4,63,30.13,10.0,SSE,5.8,-,N/A,,Clear,160,2013-02-18 02:14:00
9:35 PM,21.2,10.4,63,30.13,10.0,SSE,4.6,-,N/A,,Clear,160,2013-02-18 02:35:00
9:54 PM,21.2,12.2,68,30.13,10.0,SSE,5.8,-,N/A,,Clear,150,2013-02-18 02:54:00
10:14 PM,21.2,12.2,68,30.12,10.0,SSE,5.8,-,N/A,,Clear,150,2013-02-18 03:14:00
10:35 PM,21.2,12.2,68,30.12,10.0,SSE,6.9,-,N/A,,Clear,150,2013-02-18 03:35:00
10:54 PM,21.2,12.2,68,30.12,10.0,SSE,8.1,-,N/A,,Clear,160,2013-02-18 03:54:00
11:14 PM,21.2,12.2,68,30.12,10.0,SSE,5.8,-,N/A,,Clear,160,2013-02-18 04:14:00
11:35 PM,21.2,12.2,68,30.12,10.0,SSE,8.1,-,N/A,,Clear,150,2013-02-18 04:35:00
11:54 PM,21.2,12.2,68,30.11,10.0,SSE,8.1,-,N/A,,Clear,150,2013-02-18 04:54:00